GW3396 Weather Reports


time (UTC)temp
C
wind
direction
speed
KPH
gust
KPH
rain 1hr
cm
rain 24hr
cm
rain mn
cm
humidity
%
barometer
mb
20260504081506 5 224 0.0 1.6 0.00 0.00 0.00 89 1017.5
20260504044526 7 224 0.0 3.2 0.00 0.00 0.00 77 1018.5
20260504043013 8 224 0.0 0.0 0.00 0.00 0.00 76 1018.6
20260504041524 9 224 0.0 0.0 0.00 0.00 0.00 71 1018.5
20260504040019 10 224 0.0 3.2 0.00 0.00 0.00 67 1018.6
20260504034522 10 224 0.0 3.2 0.00 0.00 0.00 66 1018.8
20260504033024 10 222 1.6 4.8 0.00 0.00 0.00 63 1018.8
20260504031512 11 255 0.0 4.8 0.00 0.00 0.00 60 1018.8
20260504030021 11 255 1.6 4.8 0.00 0.00 0.00 60 1018.8
20260504024524 11 240 1.6 4.8 0.00 0.00 0.00 61 1018.8
20260504023025 11 264 0.0 3.2 0.00 0.00 0.00 59 1018.8
20260504021510 11 264 0.0 3.2 0.00 0.00 0.00 57 1018.8
20260504020015 11 258 0.0 4.8 0.00 0.00 0.00 58 1018.6
20260504014526 12 247 1.6 4.8 0.00 0.00 0.00 57 1018.5
20260504013021 12 248 0.0 3.2 0.00 0.00 0.00 59 1018.3
20260504011505 13 248 0.0 4.8 0.00 0.00 0.00 56 1018.2
20260504010009 13 230 0.0 3.2 0.00 0.00 0.00 55 1018.2
20260504004518 14 238 0.0 4.8 0.00 0.00 0.00 55 1018.1
20260504003018 15 233 0.0 6.4 0.00 0.00 0.00 52 1018.0
20260504001525 16 257 0.0 4.8 0.00 0.00 0.00 50 1018.0
20260504000007 17 273 0.0 4.8 0.00 0.00 0.00 48 1017.8
20260503234512 17 205 1.6 4.8 0.00 0.00 0.00 47 1018.0
20260503233019 17 256 3.2 9.7 0.00 0.00 0.00 45 1018.1
20260503231520 18 257 3.2 11.3 0.00 0.00 0.00 45 1018.1
20260503230023 18 250 3.2 11.3 0.00 0.00 0.00 45 1018.1
20260503224526 17 279 4.8 11.3 0.00 0.00 0.00 43 1018.2
20260503223016 18 254 3.2 11.3 0.00 0.00 0.00 43 1018.3
20260503221526 18 261 6.4 19.3 0.00 0.00 0.00 44 1018.3
20260503220024 18 314 4.8 12.9 0.00 0.00 0.00 44 1018.4
20260503214525 18 274 3.2 14.5 0.00 0.00 0.00 44 1018.5
20260503213027 17 258 3.2 11.3 0.00 0.00 0.00 45 1018.7
20260503211517 17 291 6.4 12.9 0.00 0.00 0.00 45 1018.9
20260503210020 18 297 4.8 16.1 0.00 0.00 0.00 44 1019.2
20260503204526 18 244 6.4 12.9 0.00 0.00 0.00 44 1019.3
20260503203026 18 314 0.0 16.1 0.00 0.00 0.00 40 1019.4
20260503201526 17 220 4.8 14.5 0.00 0.00 0.00 41 1019.6
20260503200006 18 298 3.2 14.5 0.00 0.00 0.00 42 1019.7
20260503194504 17 205 3.2 14.5 0.00 0.00 0.00 47 1020.1
20260503193005 17 157 3.2 12.9 0.00 0.00 0.00 41 1020.2
20260503191508 17 250 6.4 11.3 0.00 0.00 0.00 44 1020.4
20260503190007 17 213 3.2 14.5 0.00 0.00 0.00 48 1020.5
20260503184513 16 291 3.2 11.3 0.00 0.00 0.00 52 1020.8
20260503183011 16 270 6.4 16.1 0.00 0.00 0.00 54 1020.9
20260503181508 16 321 6.4 12.9 0.00 0.00 0.00 52 1020.9
20260503180011 16 221 3.2 12.9 0.00 0.00 0.00 49 1021.0
20260503174508 15 221 3.2 11.3 0.00 0.00 0.00 52 1021.2
20260503173010 15 11 8.0 14.5 0.00 0.00 0.00 50 1021.4
20260503171508 15 355 3.2 8.0 0.00 0.00 0.00 51 1021.7